Flag Weather past 2 weeks in Karachi, Sindh, Pakistan

Now
84 °F

Scattered clouds.


Feels Like: 86 °F
Forecast: 69 / 84 °F
Wind: 12 mph from Southwest

Location: Karachi Airport

Current Time: Nov 29, 2014 at 3:15:58 PM

Latest Report: Nov 29, 2014 at 2:55 PM


Visibility: 3 mi

Pressure: 29.89 "Hg

Humidity: 51%

Dew point: 64 °F

Location of KarachiLocation

Historic Weather in Karachi — Graph

°F

Karachi temperature yesterday

Maximum temperature yesterday: 86 °F (at 1:55 PM)
Minimum temperature yesterday: 70 °F (at 7:25 AM)
Average temperature yesterday: 78 °F

Past Weeks' High & Low Weather Summary

 TemperatureHumidityPressure
High93 °F (Nov 14, 1:25 PM)89% (Nov 22, 8:55 AM)30.07 "Hg (Nov 22, 8:55 AM)
Low59 °F (Nov 16, 5:55 AM)11% (Nov 14, 1:25 PM)29.80 "Hg (Nov 27, 3:55 PM)
Average77 °F45%29.95 "Hg
* Reported Nov 14 1:25 PM — Nov 29 1:55 PM, Karachi, Weather by CustomWeather, © 2014

Note: Actual official high and low records may vary slightly from our data, if they occured in-between our weather recording intervals... More about our weather records

Advertising

Karachi weather history for previous 24 hours

 ConditionsComfort  
Time TempWeatherWind HumidityBarometerVisibility
1:55 PM
Nov 29
84 °FScattered clouds.No wind43%N/A3 mi
1:25 PM84 °FScattered clouds.6 mph43%29.92 "Hg3 mi
12:55 PM84 °FScattered clouds.8 mph45%29.92 "Hg3 mi
12:25 PM84 °FScattered clouds.5 mph45%29.95 "Hg4 mi
11:55 AM82 °FScattered clouds.No wind51%30.04 "Hg3 mi
11:25 AM82 °FScattered clouds.7 mph55%29.98 "Hg3 mi
10:55 AM82 °FScattered clouds.No wind55%29.98 "Hg3 mi
10:25 AM79 °FHaze.6 mph65%30.01 "Hg2 mi
9:55 AM79 °FPassing clouds.No wind65%30.01 "Hg1 mi
9:25 AM77 °FPassing clouds.No wind69%30.01 "Hg1 mi
8:55 AM73 °FPassing clouds.5 mph74%29.98 "Hg1 mi
8:25 AM70 °FFog.5 mph88%29.98 "Hg1 mi
7:55 AM68 °FFog.No wind88%29.95 "Hg1 mi
7:25 AM68 °FFog.3 mph88%29.95 "Hg1 mi
6:55 AM68 °FFog.3 mph88%29.95 "Hg1 mi
6:25 AM70 °FFog.5 mph88%29.92 "Hg2 mi
5:55 AM70 °FFog.5 mph88%29.92 "Hg2 mi
5:25 AM70 °FFog.5 mph88%29.92 "Hg2 mi
4:55 AM70 °FPassing clouds.5 mph88%29.92 "Hg2 mi
3:25 AM72 °FPassing clouds.5 mph88%29.92 "Hg2 mi
1:55 AM73 °FPassing clouds.No wind83%29.92 "Hg2 mi
11:25 PM
Nov 28
75 °FClear.2 mph78%29.92 "Hg3 mi
10:55 PM75 °FClear.3 mph78%29.92 "Hg4 mi
10:25 PM75 °FClear.3 mph78%29.92 "Hg4 mi
9:25 PM77 °FPassing clouds.2 mph74%29.92 "Hg4 mi
8:55 PM77 °FPassing clouds.5 mph74%29.92 "Hg4 mi
8:25 PM77 °FPassing clouds.3 mph74%29.89 "Hg4 mi
6:55 PM79 °FPassing clouds.8 mph70%29.86 "Hg4 mi
6:25 PM82 °FPassing clouds.9 mph58%29.86 "Hg4 mi
5:25 PM81 °FPassing clouds.12 mph62%29.83 "Hg4 mi
4:55 PM81 °FPassing clouds.10 mph62%29.83 "Hg4 mi
4:25 PM82 °FPassing clouds.12 mph58%29.83 "Hg4 mi
3:55 PM84 °FPassing clouds.13 mph55%29.83 "Hg4 mi
Weather by CustomWeather, © 2014

See weather overviewHow to use our weather pages